2023/11/02 00:00:00, 0.3,11.2
2023/11/02 00:10:00, 0.4,10.9
2023/11/02 00:20:00, 0.4,10.8
2023/11/02 00:30:00, 0.4,10.9
2023/11/02 00:40:00, 0.4,10.8
2023/11/02 00:50:00, 0.5,10.7
2023/11/02 01:00:00, 0.4,10.8
2023/11/02 01:10:00, 0.5,10.9
2023/11/02 01:20:00, 0.5,11.0
2023/11/02 01:30:00, 0.5,11.3
2023/11/02 01:40:00, 0.4,11.0
2023/11/02 01:50:00, 0.4,11.1
2023/11/02 02:00:00, 0.5,11.3
2023/11/02 02:10:00, 0.4,11.1
2023/11/02 02:20:00, 0.4,10.6
2023/11/02 02:30:00, 0.4,10.7
2023/11/02 02:40:00, 0.4,10.3
2023/11/02 02:50:00, 0.4,10.5
2023/11/02 03:00:00, 0.4,10.3
2023/11/02 03:10:00, 0.4,10.0
2023/11/02 03:20:00, 0.3,10.0
2023/11/02 03:30:00, 0.4, 9.6
2023/11/02 03:40:00, 0.5, 9.7
2023/11/02 03:50:00, 0.5, 9.7
2023/11/02 04:00:00, 0.5, 9.9
2023/11/02 04:10:00, 0.5, 9.9
2023/11/02 04:20:00, 0.4, 9.9
2023/11/02 04:30:00, 0.5, 9.6
2023/11/02 04:40:00, 0.4, 9.6
2023/11/02 04:50:00, 0.4, 9.5
2023/11/02 05:00:00, 0.4,10.0
2023/11/02 05:10:00, 0.4, 9.8
2023/11/02 05:20:00, 0.4, 9.8
2023/11/02 05:30:00, 0.4, 9.5
2023/11/02 05:40:00, 0.4, 9.0
2023/11/02 05:50:00, 0.4, 9.4
2023/11/02 06:00:00, 0.4, 9.5
2023/11/02 06:10:00, 0.5, 9.1
2023/11/02 06:20:00, 0.5, 9.4
2023/11/02 06:30:00, 0.5, 9.2
2023/11/02 06:40:00, 0.5, 8.5
2023/11/02 06:50:00, 0.5, 9.3
2023/11/02 07:00:00, 0.4, 9.6
2023/11/02 07:10:00, 0.4, 9.6
2023/11/02 07:20:00, 0.3,10.3
2023/11/02 07:30:00, 0.4,10.4
2023/11/02 07:40:00, 0.4,13.5
2023/11/02 07:50:00, 0.5,15.9
2023/11/02 08:00:00, 0.5,16.9
2023/11/02 08:10:00, 0.5,17.8
2023/11/02 08:20:00, 0.5,18.5
2023/11/02 08:30:00, 0.5,19.2
2023/11/02 08:40:00, 0.5,20.6
2023/11/02 08:50:00, 0.5,20.4
2023/11/02 09:00:00, 0.5,21.2
2023/11/02 09:10:00, 0.5,22.4
2023/11/02 09:20:00, 0.4,23.1
2023/11/02 09:30:00, 0.3,22.9
2023/11/02 09:40:00, 0.4,22.6
2023/11/02 09:50:00, 0.3,23.9
2023/11/02 10:00:00, 0.4,24.0
2023/11/02 10:10:00, 0.4,24.8
2023/11/02 10:20:00, 0.4,25.8
2023/11/02 10:30:00, 0.3,26.6
2023/11/02 10:40:00, 0.2,28.0
2023/11/02 10:50:00, 0.2,28.6
2023/11/02 11:00:00, 0.2,29.1
2023/11/02 11:10:00, 0.2,31.1
2023/11/02 11:20:00, 0.2,30.3
2023/11/02 11:30:00, 0.2,29.9
2023/11/02 11:40:00, 0.1,31.0
2023/11/02 11:50:00, 0.0,31.2
2023/11/02 12:00:00, 0.0,29.6
2023/11/02 12:10:00, 0.0,30.7
2023/11/02 12:20:00, 0.0,30.5
2023/11/02 12:30:00, 0.1,31.0
2023/11/02 12:40:00, 0.0,30.7
2023/11/02 12:50:00, 0.0,31.1
2023/11/02 13:00:00, 0.0,30.7
2023/11/02 13:10:00, 0.0,30.6
2023/11/02 13:20:00, 0.0,30.8
2023/11/02 13:30:00, 0.0,30.5
2023/11/02 13:40:00, 0.0,29.9
2023/11/02 13:50:00, 0.0,30.0
2023/11/02 14:00:00, 0.0,29.5
2023/11/02 14:10:00, 0.0,29.3
2023/11/02 14:20:00, 0.0,29.6
2023/11/02 14:30:00, 0.0,29.1
2023/11/02 14:40:00, 0.0,28.9
2023/11/02 14:50:00, 0.0,28.5
2023/11/02 15:00:00, 0.0,29.0
2023/11/02 15:10:00, 0.0,27.8
2023/11/02 15:20:00, 0.1,28.0
2023/11/02 15:30:00, 0.1,27.9
2023/11/02 15:40:00, 0.1,25.1
2023/11/02 15:50:00, 0.1,25.7
2023/11/02 16:00:00, 0.1,25.7
2023/11/02 16:10:00, 0.1,25.3
2023/11/02 16:20:00, 0.1,25.0
2023/11/02 16:30:00, 0.2,24.0
2023/11/02 16:40:00, 0.2,21.0
2023/11/02 16:50:00, 0.2,19.8
2023/11/02 17:00:00, 0.3,18.9
2023/11/02 17:10:00, 0.3,18.4
2023/11/02 17:20:00, 0.3,17.6
2023/11/02 17:30:00, 0.3,17.1
2023/11/02 17:40:00, 0.4,16.4
2023/11/02 17:50:00, 0.4,16.2
2023/11/02 18:00:00, 0.4,16.0
2023/11/02 18:10:00, 0.3,15.9
2023/11/02 18:20:00, 0.4,15.5
2023/11/02 18:30:00, 0.3,16.0
2023/11/02 18:40:00, 0.3,16.1
2023/11/02 18:50:00, 0.3,16.5
2023/11/02 19:00:00, 0.3,15.6
2023/11/02 19:10:00, 0.4,15.4
2023/11/02 19:20:00, 0.4,15.3
2023/11/02 19:30:00, 0.4,15.0
2023/11/02 19:40:00, 0.4,15.1
2023/11/02 19:50:00, 0.4,14.8
2023/11/02 20:00:00, 0.4,14.5
2023/11/02 20:10:00, 0.4,14.7
2023/11/02 20:20:00, 0.4,15.0
2023/11/02 20:30:00, 0.4,15.1
2023/11/02 20:40:00, 0.4,14.8
2023/11/02 20:50:00, 0.4,14.6
2023/11/02 21:00:00, 0.4,14.7
2023/11/02 21:10:00, 0.4,15.2
2023/11/02 21:20:00, 0.4,15.3
2023/11/02 21:30:00, 0.4,14.8
2023/11/02 21:40:00, 0.4,15.7
2023/11/02 21:50:00, 0.4,15.4
2023/11/02 22:00:00, 0.4,15.2
2023/11/02 22:10:00, 0.5,15.0
2023/11/02 22:20:00, 0.4,15.4
2023/11/02 22:30:00, 0.4,15.0
2023/11/02 22:40:00, 0.4,15.1
2023/11/02 22:50:00, 0.4,15.0
2023/11/02 23:00:00, 0.4,15.2
2023/11/02 23:10:00, 0.4,15.2
2023/11/02 23:20:00, 0.4,15.0
2023/11/02 23:30:00, 0.4,14.8
2023/11/02 23:40:00, 0.4,15.2
2023/11/02 23:50:00, 0.4,15.3
